GFSMA_250_spd_057.txt.gz
Wind_Speed
40 33 39 46 32 40 35 34 34 40 39 34 38 39 32 33 35 42 48 45 46 48 46 49 50 53 54 54 55 53 51 56 64 68 71 68 73 79 77 78 82 86 84
43 39 41 37 36 36 38 33 36 35 39 39 40 39 39 40 46 49 52 48 47 52 50 53 52 52 55 57 57 54 62 67 70 72 71 76 79 78 82 82 83 81 83
43 44 39 33 34 33 37 43 37 40 40 42 41 42 43 44 49 55 48 50 52 54 51 50 50 54 57 54 53 61 67 72 71 72 76 77 78 79 80 82 83 84 80
45 46 39 39 37 42 40 39 40 41 42 48 48 45 51 53 53 56 56 56 52 52 51 52 55 54 53 54 62 67 69 70 75 72 78 76 76 79 80 82 81 79 76
55 54 47 45 45 43 39 39 42 45 48 51 51 50 56 56 60 59 56 59 50 49 55 52 50 52 57 60 61 67 70 70 71 73 73 76 78 80 79 74 74 78 79
41 50 47 45 44 48 43 45 51 54 58 60 60 58 63 62 65 57 58 55 51 49 47 49 52 57 59 61 65 64 64 69 72 74 74 74 73 71 74 77 80 81 78
42 45 50 48 45 50 54 57 59 61 61 61 63 58 62 63 61 58 53 46 48 48 48 53 55 59 64 65 62 63 68 70 71 72 71 74 77 79 80 81 83 79 80
52 53 51 53 58 62 64 67 69 68 70 65 64 65 64 57 57 63 49 51 49 52 56 54 57 62 65 63 65 71 72 73 74 72 75 76 78 81 83 80 79 80 79
63 64 65 67 67 65 63 65 69 63 63 60 62 56 50 56 63 51 53 56 60 60 59 58 56 56 60 65 72 74 75 79 78 76 78 79 79 79 79 81 79 80 81
62 58 58 60 62 64 65 63 57 57 55 52 51 54 54 56 47 49 55 57 56 56 56 56 55 62 68 71 73 76 82 79 79 81 78 76 78 81 78 77 80 85 88
58 55 57 59 56 51 49 46 52 52 52 51 53 55 53 53 53 57 59 57 57 50 53 58 63 68 70 73 74 81 79 77 78 76 78 82 78 77 75 80 86 89 90
63 62 58 57 58 60 53 50 52 52 51 55 55 55 55 59 55 59 55 50 53 58 63 66 68 72 75 75 79 78 76 77 79 79 78 76 74 76 81 85 88 91 95
57 68 61 56 57 54 54 53 53 53 54 54 58 59 59 54 51 48 50 55 59 60 66 72 75 75 78 80 76 75 74 74 74 74 73 75 76 80 86 88 91 93 96
46 47 51 50 52 56 50 49 51 53 55 58 56 57 55 59 62 60 54 55 57 65 72 75 77 76 75 69 68 69 70 72 73 74 75 77 80 84 87 89 92 96 99
41 46 50 46 46 49 47 46 49 53 56 56 56 58 63 56 53 55 59 60 63 66 71 75 72 69 65 64 62 63 66 68 71 74 77 81 84 87 91 95 97 99 98
41 45 45 46 44 47 49 51 54 55 58 56 59 61 53 50 53 55 59 61 65 71 69 62 62 56 59 62 62 63 64 66 71 74 79 83 87 91 94 96 97 99 100
50 52 51 48 49 51 50 51 52 55 54 59 61 55 50 51 54 58 56 59 67 61 58 57 59 59 66 66 67 68 68 70 74 78 81 83 87 89 91 92 94 96 98
52 52 50 48 48 51 50 48 50 57 61 59 56 56 54 55 62 58 62 64 64 61 62 67 65 62 67 69 70 71 73 73 76 80 81 84 87 90 93 95 97 98 98
47 49 49 51 54 52 48 49 51 53 53 55 55 56 59 62 60 64 67 67 66 67 67 67 66 68 71 72 72 71 75 78 81 83 86 90 93 96 96 95 94 95 98
39 44 46 47 49 48 48 51 51 50 56 50 52 54 64 63 69 70 67 65 66 67 67 68 70 72 73 73 73 74 75 76 80 85 87 91 95 97 98 98 99 100 103
31 34 36 40 42 42 45 46 45 44 44 44 49 59 60 64 64 62 64 65 69 72 72 72 71 73 75 76 75 76 76 79 83 87 90 96 98 101 103 105 105 105 106
32 29 30 34 36 38 39 42 43 45 44 43 44 51 53 58 62 63 68 72 71 72 72 72 73 76 78 79 80 80 82 83 83 89 93 98 101 103 105 108 111 108 109
35 37 37 36 37 41 44 46 47 49 50 50 52 55 57 59 64 65 67 69 70 72 76 78 78 81 82 84 85 87 89 89 89 93 95 96 104 106 109 113 115 111 110
43 43 44 44 44 45 48 50 51 53 53 55 55 57 60 62 65 68 70 71 74 75 78 81 83 86 88 89 90 92 94 94 95 100 103 101 108 110 112 118 119 114 113
53 52 51 51 52 51 52 54 56 58 59 60 62 63 65 68 71 74 75 77 78 80 83 86 88 92 91 93 94 96 97 98 100 104 109 107 112 114 117 121 121 117 116
54 59 61 61 61 62 62 64 64 64 66 68 69 70 71 73 75 77 81 84 85 86 88 90 92 96 96 97 98 101 102 103 105 107 113 111 118 121 120 123 121 118 117

GFSMA_250_spd_060.txt.gz
Wind_Speed
51 51 35 35 34 38 37 36 39 34 29 35 37 41 37 37 35 37 40 37 39 39 41 43 47 54 50 47 50 47 49 52 55 50 56 58 60 65 69 72 73 76 78
49 49 34 31 38 40 36 37 40 36 36 38 47 46 39 38 40 37 42 43 41 48 49 48 51 54 48 46 45 50 50 49 52 54 59 63 67 72 74 76 77 77 75
39 47 37 37 37 39 38 35 35 28 35 34 41 37 37 40 41 44 48 49 51 53 49 47 53 51 47 48 48 51 54 55 55 60 61 65 70 74 76 75 74 74 75
41 35 39 38 40 46 44 36 34 35 34 43 39 38 43 47 52 52 50 49 51 54 52 54 55 47 47 49 48 52 55 59 61 62 63 67 68 68 69 70 71 69 71
44 48 47 47 48 47 49 39 42 46 41 43 43 47 50 52 55 56 52 55 60 57 52 55 51 50 48 51 49 54 59 60 62 65 69 67 67 69 69 69 71 71 71
50 52 52 47 48 46 47 47 52 48 46 48 52 56 60 61 65 61 58 61 58 49 50 49 50 48 49 54 57 58 61 64 66 68 65 68 67 70 69 70 70 70 72
53 53 53 50 52 52 53 52 48 46 50 55 60 61 64 65 65 63 68 60 51 50 48 50 50 51 55 57 59 61 60 60 61 66 69 69 70 72 70 69 72 72 72
49 53 50 51 50 48 47 49 49 55 60 64 66 67 63 61 62 62 60 52 50 51 48 49 53 53 53 55 58 55 55 60 60 61 68 71 74 71 71 72 72 73 73
52 54 54 54 52 53 53 57 62 66 67 66 64 62 62 62 61 57 56 51 52 48 48 53 50 49 51 51 53 56 56 59 65 68 69 68 67 67 68 70 70 71 69
49 54 57 56 56 58 60 61 63 64 63 64 65 62 61 59 61 57 55 54 55 56 52 50 49 46 53 55 52 55 63 68 68 66 65 65 65 64 65 66 67 68 69
51 51 56 61 58 59 63 64 63 65 65 60 57 58 60 57 56 55 50 52 52 51 46 49 52 54 53 52 59 62 64 63 63 62 63 64 63 63 63 65 67 71 72
54 58 60 61 60 61 63 63 65 67 69 67 65 62 56 54 53 54 48 51 46 46 44 47 49 47 53 58 62 60 60 57 59 62 62 59 59 59 62 65 68 70 72
59 61 62 63 62 65 66 69 68 66 64 61 55 57 53 53 53 51 47 50 52 49 50 50 50 53 59 63 60 61 59 61 64 67 64 64 64 61 64 66 66 68 71
49 53 57 60 60 63 63 64 59 57 56 54 51 54 51 51 48 49 49 52 61 51 49 49 51 57 65 56 62 61 66 65 65 67 68 69 68 67 70 72 72 74 76
33 37 43 49 50 50 51 53 57 56 53 53 49 49 51 48 50 52 52 50 44 46 44 48 52 60 60 61 64 66 67 68 68 70 73 73 73 74 74 73 74 77 79
37 43 49 50 49 50 52 54 56 55 48 48 54 52 49 52 56 55 49 41 42 47 45 49 56 65 62 64 66 68 68 71 71 74 74 76 79 81 79 78 78 81 84
44 46 47 45 48 50 52 51 53 56 58 59 53 55 53 56 60 51 50 44 45 50 53 55 62 64 65 67 67 71 71 70 70 72 76 78 78 78 82 85 86 86 87
55 59 57 57 58 56 59 57 59 56 56 54 52 52 55 52 49 48 47 54 59 60 61 61 64 66 68 70 72 72 72 72 75 76 82 82 82 84 86 89 91 90 92
29 35 43 51 58 59 57 55 55 53 53 50 52 54 43 55 54 49 52 58 65 67 67 69 67 69 71 73 72 74 75 77 78 82 86 87 87 89 92 94 93 95 96
19 21 26 32 36 40 43 48 50 49 49 49 49 48 49 50 49 48 58 61 65 67 71 72 72 72 73 71 72 74 77 80 85 88 89 92 91 93 95 97 99 101 102
26 24 21 22 24 25 29 34 36 36 37 40 42 45 46 45 53 50 55 63 64 72 77 75 75 73 75 76 77 80 83 86 89 92 93 96 98 100 100 103 106 108 108
32 35 36 35 33 32 34 34 35 36 37 39 41 43 44 46 49 50 55 63 65 73 72 75 75 77 78 81 83 87 88 90 94 96 97 98 102 103 105 109 111 112 114
36 40 39 40 43 44 46 46 47 46 48 48 48 49 52 54 54 56 61 65 67 73 77 77 79 81 83 84 90 92 94 97 98 101 101 101 106 106 109 112 114 117 119
42 44 46 45 45 47 50 51 55 56 55 57 57 57 59 62 64 67 70 72 75 79 84 83 85 88 89 90 94 96 99 102 104 105 107 105 108 108 111 115 119 122 121
56 54 52 51 52 52 54 54 58 59 61 63 65 68 69 72 75 78 80 82 84 86 89 87 92 95 96 98 101 104 105 107 108 109 112 111 113 112 113 117 123 125 124
61 62 63 59 59 57 60 62 65 64 67 69 70 72 74 79 83 83 85 88 87 89 93 96 99 101 102 104 106 110 111 113 115 113 115 117 119 119 116 122 125 128 127

GFSMA_250_spd_063.txt.gz
Wind_Speed
32 37 45 47 41 39 37 35 29 39 26 28 34 34 34 34 34 33 37 39 41 51 44 42 43 47 49 44 46 51 50 48 43 45 48 52 55 57 60 61 65 67 69
26 41 44 45 42 39 34 32 28 24 27 34 32 34 30 37 38 37 42 44 46 53 52 46 48 49 50 49 48 49 48 45 45 49 54 56 57 60 64 67 67 69 72
25 27 38 48 40 37 32 38 38 33 32 30 30 37 38 40 31 37 45 43 50 54 55 48 50 53 51 50 50 49 47 48 49 49 54 58 61 64 66 66 69 72 73
37 35 43 50 41 37 33 40 43 38 38 40 35 39 44 45 46 45 45 51 56 62 54 54 58 57 53 51 50 48 51 52 50 54 59 62 64 67 69 70 71 72 71
39 38 43 44 45 38 37 40 38 40 42 44 41 46 51 53 48 46 55 60 62 61 57 59 57 55 52 51 51 50 52 55 57 60 62 64 68 67 66 67 69 72 74
42 42 44 44 43 36 37 42 49 43 47 51 50 51 55 48 51 57 62 67 65 62 60 60 57 52 53 53 49 52 56 60 63 63 65 64 60 61 61 66 69 65 65
45 41 45 45 43 42 46 53 55 51 49 48 55 52 51 53 59 63 66 64 63 62 62 59 53 52 57 57 53 55 59 61 61 56 56 54 56 61 65 58 58 58 57
43 47 50 48 49 52 54 56 53 56 53 53 55 56 59 63 64 66 66 65 65 63 62 56 53 55 57 56 57 57 59 58 56 56 56 60 57 53 55 56 55 55 55
47 47 49 55 57 57 59 59 57 58 57 55 57 61 65 64 66 66 63 62 62 65 59 55 56 59 57 56 58 58 58 54 52 52 52 47 53 52 56 60 59 58 60
48 51 52 53 54 59 60 64 62 58 60 62 62 65 66 66 67 67 63 63 66 61 60 63 59 60 60 57 56 54 52 53 51 51 50 55 57 57 57 59 60 61 61
50 54 54 53 54 53 55 59 63 63 64 67 66 65 68 69 70 70 70 68 64 63 62 59 60 60 59 58 50 43 48 48 52 51 55 56 58 59 61 63 64 63 65
54 51 48 48 54 57 63 65 63 65 65 67 69 70 70 70 71 72 69 64 64 62 62 59 60 60 61 56 51 44 48 47 49 53 56 59 60 63 64 66 68 68 67
64 62 59 59 60 61 64 65 63 65 67 68 70 72 71 73 72 70 66 62 62 59 58 60 62 65 61 49 46 47 49 51 53 56 57 61 63 65 65 68 71 72 72
64 61 63 63 62 62 61 63 66 67 71 73 73 69 75 70 65 62 61 61 60 58 59 63 62 60 50 48 47 46 51 55 58 59 62 64 66 67 68 72 73 73 76
65 65 67 68 69 68 69 70 72 70 67 66 71 64 65 68 66 63 61 61 63 58 60 61 60 52 49 47 50 55 56 59 62 63 66 68 70 71 74 75 76 78 80
54 61 69 73 72 74 71 67 67 64 59 58 61 64 63 62 61 62 63 63 62 60 60 61 56 51 51 51 52 55 59 59 64 67 70 70 72 74 78 80 81 82 86
42 45 47 50 52 54 54 54 56 58 59 63 64 63 62 62 63 63 61 59 60 63 53 53 52 57 62 66 66 67 69 67 69 73 73 74 75 79 82 84 87 89 90
46 44 46 49 50 52 53 56 58 57 59 61 62 64 64 66 63 60 63 61 59 61 57 52 48 57 69 68 73 77 77 71 74 76 77 80 82 84 87 88 90 93 96
29 38 46 53 58 60 63 64 66 68 67 68 69 69 68 64 61 63 61 60 61 55 53 55 56 64 66 71 73 79 79 77 79 79 81 81 86 89 91 93 95 98 101
19 19 20 22 27 31 36 41 46 50 52 52 51 50 52 55 58 57 54 52 52 50 52 58 63 62 63 66 78 85 85 87 85 85 86 88 91 96 100 101 102 105 107
25 25 27 29 30 32 33 32 31 30 29 29 32 36 38 40 43 46 47 48 50 54 57 59 67 64 68 78 78 84 85 88 91 91 93 95 99 101 105 106 108 112 115
32 30 31 32 33 34 37 37 37 37 40 41 40 42 44 46 49 51 54 57 61 58 58 60 65 70 72 77 84 88 92 96 98 97 97 101 105 107 109 110 113 116 120
38 40 41 42 43 42 44 44 46 43 42 41 45 49 50 52 54 56 59 62 66 68 71 71 74 79 82 84 89 95 100 97 98 102 103 104 109 111 114 116 119 123 124
46 46 47 45 47 50 51 54 55 53 53 52 51 55 55 56 59 60 64 68 70 71 74 77 80 83 86 90 92 100 104 106 107 111 112 110 113 115 120 121 121 125 128
55 55 54 53 53 55 56 58 60 61 63 61 61 65 62 62 64 66 70 72 75 77 79 83 87 90 89 97 99 99 106 110 111 113 116 115 118 119 120 121 126 128 131
59 59 58 60 62 64 61 61 63 67 66 65 67 69 71 69 70 73 77 79 80 83 85 89 92 96 95 98 103 107 109 113 114 113 115 118 120 122 120 121 126 125 124

GFSMA_250_spd_069.txt.gz
Wind_Speed
44 31 28 29 34 33 31 32 32 31 31 36 33 39 38 32 31 34 36 34 30 29 32 35 34 39 40 43 47 49 50 48 49 50 51 51 54 52 53 48 50 54 56
39 31 22 23 24 23 28 35 39 37 37 35 37 38 36 37 32 30 29 27 29 32 37 36 34 40 43 47 50 52 52 50 50 52 54 52 49 50 51 52 56 60 61
42 43 38 34 32 27 32 38 46 46 41 40 39 37 38 32 27 26 29 31 35 39 36 41 38 42 49 50 56 57 52 51 52 55 54 48 49 51 54 58 61 62 63
50 42 31 37 34 36 38 44 50 47 41 40 42 39 45 29 28 30 32 35 39 38 42 43 45 48 54 55 57 59 55 54 57 55 51 50 53 54 55 59 61 64 68
44 45 35 31 24 26 36 41 48 49 44 39 44 43 41 36 30 30 33 35 43 44 45 48 51 56 57 58 61 62 58 58 61 56 53 54 55 55 58 61 61 64 65
46 45 38 32 28 25 32 42 46 52 45 38 42 41 37 38 34 37 35 37 42 44 51 52 56 59 58 60 63 64 60 62 63 59 55 56 54 58 60 61 60 63 60
53 44 41 36 34 33 31 44 45 47 42 41 43 39 43 45 45 47 50 49 48 52 57 60 60 61 63 65 67 66 63 68 63 58 57 57 61 62 62 60 58 52 50
53 47 52 51 43 42 41 43 42 45 42 40 41 38 48 50 52 57 49 52 54 58 60 60 63 64 65 66 65 67 68 65 63 60 59 64 61 61 59 58 59 53 50
57 53 49 44 40 39 42 43 42 40 40 43 49 47 44 59 65 59 54 57 59 61 61 67 65 65 66 67 67 67 65 62 60 63 62 63 63 65 60 57 55 51 45
67 64 57 51 41 39 41 40 44 47 49 45 48 53 54 57 60 60 58 60 63 63 64 68 71 67 66 70 71 72 65 64 63 66 64 62 63 64 60 62 51 54 47
44 55 55 52 47 45 42 47 48 50 53 55 54 57 58 61 58 60 63 66 68 68 72 70 68 67 69 70 74 72 66 66 68 60 63 63 62 61 60 56 59 56 48
48 49 54 55 54 56 52 50 49 53 56 58 60 60 58 61 61 66 70 69 73 76 73 72 69 68 69 71 67 67 66 65 65 64 64 64 62 60 62 60 56 53 52
49 50 53 52 53 55 56 56 54 52 55 56 59 63 67 70 70 67 67 69 70 74 67 67 69 70 74 72 70 67 69 66 63 67 67 66 64 66 66 63 61 52 50
60 56 54 56 57 56 56 55 56 57 56 60 62 63 65 70 72 72 75 76 78 69 69 73 76 75 74 71 68 66 63 63 67 65 66 66 64 66 61 56 55 52 54
63 62 61 63 60 58 59 60 61 61 62 63 66 70 70 72 76 77 76 72 68 70 73 77 74 71 68 66 63 66 66 65 66 62 62 61 58 54 53 55 58 62 64
56 62 63 63 64 66 64 65 65 64 66 68 67 70 71 74 75 73 74 74 75 76 74 75 73 69 69 70 69 68 67 61 60 54 52 53 54 57 60 62 66 69 70
30 43 62 61 61 65 65 67 67 68 71 72 74 74 74 75 75 76 78 77 77 74 72 69 68 70 71 72 69 64 58 52 50 52 54 58 58 62 66 68 72 74 75
25 36 39 42 47 49 54 60 65 69 68 70 72 72 79 79 78 81 80 75 76 74 71 71 71 70 65 56 54 51 50 52 54 59 59 61 65 66 68 72 75 77 80
22 23 28 35 42 48 51 49 49 51 54 56 56 57 60 62 65 67 67 62 63 66 63 56 46 46 43 48 51 52 54 56 56 58 60 62 64 67 73 78 78 80 84
35 34 32 31 31 32 35 40 47 54 58 58 54 52 52 53 54 56 52 49 46 45 45 43 42 46 48 51 57 59 61 63 65 66 67 67 68 74 78 81 82 84 88
34 42 42 41 39 38 39 38 37 38 40 42 44 46 47 47 48 48 48 50 50 50 51 51 51 53 54 54 61 66 67 69 70 73 73 74 78 84 85 83 82 85 86
41 36 38 45 47 45 45 46 44 45 46 46 49 50 50 51 52 54 55 56 58 59 59 60 62 62 65 66 70 72 74 74 72 73 76 78 82 85 90 91 93 93 93
46 45 46 45 44 51 52 50 52 53 55 55 54 58 59 58 60 62 61 60 61 63 64 67 69 67 64 63 66 70 72 74 78 78 82 85 88 90 94 98 99 99 101
55 55 55 52 52 53 54 59 62 62 60 60 60 61 64 66 66 67 69 70 69 71 72 73 74 74 72 72 75 78 81 83 87 90 91 94 96 102 105 100 99 103 105
58 61 59 58 58 61 59 61 64 65 66 68 68 68 69 69 71 72 73 76 77 78 78 82 81 83 81 80 82 84 86 89 93 97 98 100 103 106 103 103 103 106 106
68 68 66 65 67 67 66 68 71 73 72 73 74 75 75 74 72 72 74 76 80 81 80 77 80 85 88 86 95 95 94 98 105 109 110 107 101 101 99 97 101 100 103

GFSMA_250_spd_072.txt.gz
Wind_Speed
43 44 39 35 29 35 29 30 29 26 28 32 26 26 28 35 27 25 23 27 27 29 33 32 30 32 30 33 35 36 42 47 50 48 47 46 47 49 48 45 46 48 50
47 42 39 38 38 14 16 16 17 28 35 35 24 33 32 41 33 28 27 27 27 30 28 28 31 33 34 35 37 40 45 48 51 50 51 52 49 49 49 46 47 49 52
51 45 45 38 33 37 32 24 22 33 35 41 39 37 36 44 41 33 28 26 27 29 32 34 37 37 40 42 41 44 48 51 53 55 57 56 53 52 50 48 51 52 52
54 51 46 42 37 34 33 33 29 34 37 44 45 39 41 44 43 39 37 32 32 33 34 36 36 40 43 46 47 50 52 55 57 59 60 58 55 52 51 50 52 51 52
54 50 48 43 43 42 40 36 38 40 45 48 48 41 44 41 44 44 39 34 36 35 39 38 40 43 47 51 53 55 56 57 59 61 63 63 55 53 53 55 51 54 55
53 47 49 46 44 38 37 35 28 34 42 51 50 48 39 47 47 48 40 35 34 35 39 42 42 49 53 56 59 58 59 58 61 60 64 62 60 55 55 57 58 58 57
54 55 51 43 37 38 39 29 29 31 39 50 53 52 50 45 42 45 48 46 43 45 48 48 53 56 57 59 61 62 60 64 63 65 65 67 63 58 59 61 61 58 60
56 60 58 51 47 49 41 35 33 32 32 46 53 57 54 47 44 45 47 56 56 55 54 54 56 57 58 63 64 63 65 69 69 66 66 68 63 61 64 62 61 58 59
56 57 60 61 56 53 45 37 38 39 40 43 48 59 56 49 49 50 53 58 62 62 60 59 58 59 60 65 67 68 71 68 65 67 68 65 64 63 62 65 60 58 59
50 51 54 59 58 57 53 46 46 37 39 41 41 48 57 53 50 56 60 62 62 60 58 59 64 65 66 69 71 73 74 73 68 69 69 66 63 66 67 64 62 61 59
53 47 46 54 59 59 59 62 53 49 41 46 45 47 48 54 56 59 60 60 62 63 63 63 63 64 71 73 75 75 71 73 69 72 66 64 66 66 65 66 62 60 58
60 53 51 48 53 51 49 55 61 56 49 49 54 49 52 54 57 61 63 62 64 60 60 62 69 73 74 75 78 78 75 72 73 68 63 64 63 64 62 62 61 62 60
61 66 59 57 53 53 60 55 57 56 54 50 49 52 55 57 61 64 64 64 63 63 64 71 74 75 79 79 81 78 77 74 73 69 64 63 62 62 64 61 60 57 55
64 67 67 62 55 54 53 52 52 57 58 57 55 58 59 58 57 60 64 62 65 69 71 77 78 83 83 81 78 76 77 76 72 69 66 66 66 66 63 58 55 52 51
60 57 58 57 58 54 55 53 53 54 54 55 57 57 58 59 61 64 66 66 69 73 75 80 81 82 79 77 77 77 74 70 67 65 67 65 65 63 56 51 50 54 54
31 40 58 65 66 66 64 61 63 60 60 61 62 62 63 67 68 69 70 72 74 75 77 83 82 81 79 78 72 69 68 68 69 68 66 62 58 53 53 54 56 57 59
21 26 33 37 47 55 63 69 65 62 68 68 68 66 68 72 72 74 76 77 76 76 71 80 80 76 70 66 71 73 73 70 64 59 51 53 52 54 57 59 60 63 67
26 24 22 26 36 36 38 46 56 62 65 69 66 64 66 67 70 74 77 75 74 73 68 66 70 73 74 67 60 58 52 46 46 50 54 57 58 60 62 65 68 71 72
23 29 31 30 28 29 31 38 45 49 51 51 51 53 57 57 58 60 62 65 66 68 68 66 65 63 56 53 53 53 55 55 55 56 58 60 62 65 66 68 73 70 74
27 27 25 30 35 39 40 39 38 38 39 42 47 53 58 59 63 63 61 59 59 56 53 51 48 49 51 52 55 59 60 62 62 63 65 68 70 72 73 77 75 80 81
36 30 31 33 33 32 34 40 44 46 47 46 46 46 47 47 49 52 52 54 55 53 52 53 55 56 59 62 63 68 67 70 69 72 71 72 78 76 78 79 80 82 83
43 42 40 40 42 42 43 42 40 43 48 53 54 55 55 55 57 58 60 61 61 62 63 62 63 66 64 64 64 68 71 74 76 77 79 78 79 80 82 83 82 85 88
44 46 48 47 45 48 48 49 50 46 49 51 51 56 57 58 62 64 65 65 65 66 67 70 69 69 69 75 78 77 77 80 79 81 83 83 83 82 80 87 94 96 98
52 54 55 55 54 55 53 54 57 56 57 54 53 56 59 63 65 67 69 69 72 74 75 77 77 77 76 76 76 78 81 83 84 84 86 88 86 89 92 98 99 100 101
63 61 62 63 61 63 57 59 61 62 61 63 64 64 65 68 71 74 73 74 75 75 77 80 82 80 78 79 80 86 87 85 86 87 92 87 95 100 101 105 105 106 114
67 70 71 69 69 67 63 65 68 70 70 73 72 71 72 70 74 77 78 78 81 81 80 83 83 82 83 83 85 85 86 87 85 95 96 101 102 107 111 114 114 121 121

GFSMA_250_spd_075.txt.gz
Wind_Speed
54 45 48 39 41 32 23 19 26 27 29 26 26 30 36 33 30 28 27 25 27 30 30 30 32 29 25 29 28 29 32 36 37 41 42 46 48 51 55 56 55 53 47
52 50 45 40 34 32 27 17 11 14 20 28 20 27 37 36 36 29 36 30 29 30 30 30 27 25 27 28 29 32 34 39 43 46 46 48 50 54 58 59 57 52 46
55 49 46 41 36 35 33 21 26 30 27 21 24 32 42 45 39 32 36 32 30 30 30 33 30 29 31 32 33 36 38 45 47 51 50 52 53 58 62 62 60 55 44
55 53 54 48 42 41 36 36 29 31 26 27 33 37 41 44 43 34 40 37 34 32 32 34 32 34 34 39 37 41 44 49 52 53 54 52 57 64 64 62 60 51 47
42 45 53 53 48 44 43 41 40 34 28 27 30 36 42 45 45 42 38 46 42 38 38 37 37 38 38 40 42 44 49 54 55 58 57 58 62 64 65 63 61 54 51
45 49 54 61 51 47 42 39 40 31 28 28 31 32 48 49 46 45 42 46 48 47 44 42 42 44 43 44 46 50 53 58 58 58 61 63 67 68 65 64 65 53 53
55 51 48 48 49 48 46 44 38 28 31 33 36 32 43 49 48 45 47 48 48 41 44 47 50 46 45 48 50 56 59 59 59 60 64 67 71 67 69 68 60 51 54
59 52 50 50 52 50 43 41 36 39 35 40 36 32 31 47 53 50 48 51 56 53 52 54 55 55 55 56 56 63 62 62 63 63 69 69 70 71 70 64 58 56 58
50 54 57 56 56 53 51 51 52 45 50 41 34 33 36 37 53 53 56 53 58 60 61 64 61 61 59 59 65 63 63 62 62 65 70 73 76 74 66 64 58 57 61
49 50 57 62 62 58 56 55 56 56 42 45 39 34 35 38 41 51 60 60 55 56 58 63 63 62 62 64 63 64 65 63 66 70 72 76 75 67 64 64 59 59 61
48 53 55 53 53 56 59 61 58 55 58 51 48 36 37 42 46 49 53 60 62 61 61 61 61 65 65 64 67 65 64 66 72 74 76 76 72 68 66 62 61 62 63
47 49 51 47 49 50 51 50 49 51 51 49 46 45 47 49 50 51 51 53 55 62 62 64 67 71 70 70 69 67 68 73 75 78 76 74 70 69 66 63 65 65 65
51 47 52 57 54 54 52 47 46 45 45 48 46 47 51 52 56 57 57 57 57 59 62 67 70 71 72 70 68 70 74 76 79 80 76 75 72 68 65 64 62 63 66
42 53 51 49 51 56 53 52 51 49 49 49 48 48 52 53 56 57 57 58 58 60 62 65 66 69 71 71 72 74 77 82 82 82 75 73 69 66 67 66 70 68 59
17 28 47 49 50 53 52 51 53 53 55 53 51 53 53 49 56 61 60 62 61 60 61 66 68 71 74 75 77 82 79 80 79 73 72 69 66 69 73 71 61 51 50
9 9 16 25 34 47 55 55 56 57 60 57 54 55 56 55 57 59 60 63 64 65 64 71 75 77 78 77 79 79 77 72 71 68 67 70 70 67 57 50 49 51 54
14 14 15 15 17 28 33 38 48 60 62 62 62 61 62 62 60 65 68 68 69 70 67 74 76 77 78 80 79 70 70 69 67 67 67 65 59 54 53 55 56 58 58
17 19 14 19 21 21 19 22 33 38 38 42 50 58 65 67 68 70 70 71 72 73 68 68 73 73 67 70 71 73 69 63 63 59 58 58 59 59 60 62 63 65 65
21 21 23 22 21 22 25 28 29 30 29 29 30 34 41 44 51 55 58 58 58 58 56 55 58 61 60 59 58 58 60 58 56 58 60 63 65 66 68 70 71 70 71
29 28 29 29 28 30 30 27 26 27 29 34 35 38 40 42 44 44 45 47 48 48 49 48 49 53 55 59 57 59 60 63 64 68 70 68 67 68 69 71 73 74 74
35 35 34 35 35 37 36 37 34 34 35 34 37 37 38 41 44 48 50 53 54 53 53 54 53 55 58 63 65 67 66 68 68 69 72 74 78 78 79 80 80 79 80
40 42 41 38 39 42 43 45 46 44 42 42 43 42 41 40 45 51 50 51 55 58 60 62 62 63 63 66 70 71 73 75 73 77 79 78 82 81 81 82 85 86 88
48 47 49 48 48 48 47 48 51 53 52 50 51 50 47 47 50 50 52 53 56 57 60 65 65 66 66 68 69 70 70 74 79 80 80 84 82 85 88 90 91 92 91
55 54 55 55 56 57 54 55 57 57 57 59 60 59 55 54 57 58 58 61 63 63 64 64 67 71 76 75 74 75 77 79 81 84 85 85 88 87 90 92 94 97 97
58 60 61 61 62 63 61 62 63 67 67 65 64 63 60 61 65 64 66 69 71 69 68 72 75 77 79 79 81 82 83 84 82 85 85 86 88 90 90 96 97 94 96
63 64 64 64 65 67 67 68 69 71 69 68 69 64 67 68 67 69 70 74 76 75 77 75 78 82 82 84 84 87 86 90 87 88 92 93 92 94 95 95 96 100 99